Regional Weather Roundup
Issued by NWS Albany, NY

Home | Current Version | Previous Version | Graphics & Text | Print | Product List | Glossary Off
Versions: 1 2 3 4 5 6 7 8 9 10 11 12 13 14 15 16 17 18 19 20 21 22 23 24 25 26 27 28 29 30 31 32 33 34 35 36 37 38 39 40 41 42 43 44 45 46 47 48 49

000
ASUS41 KALY 041010
RWRALY

NEW YORK STATE HOURLY WEATHER ROUNDUP
NATIONAL WEATHER SERVICE ALBANY NY
600 AM EDT FRI SEP 04 2015

NOTE: "FAIR" INDICATES FEW OR NO CLOUDS BELOW 12,000 FEET WITH NO
SIGNIFICANT WEATHER AND/OR NO OBSTRUCTIONS TO VISIBILITY.

NYZ032-033-038>043-046>054-057>066-NYZ062>081-041100-
EAST


CITY           SKY/WX    TMP DP  RH WIND       PRES   REMARKS
ALBANY         PTCLDY    66  54  65 N10       30.04R
GLENS FALLS    CLEAR     58  53  84 N3        30.06R
POUGHKEEPSIE   CLEAR     69  64  84 N3        29.99R
NEWBURGH       PTCLDY    70  64  83 E14       30.01
MONTGOMERY     CLEAR     66  65  96 N3        30.00R
WHITE PLAINS   CLEAR     72  66  81 N7        29.97R
ISLIP          FOG       74  71  91 NE7       29.94R VSB 1
NEW YORK CITY  PTCLDY    76  66  71 NE9       29.95R
CENTRAL PARK   CLEAR     77  66  68 VRB7      29.98R
$$

NYZ005>009-017-018-044>046-055-056-041100-
CENTRAL


CITY           SKY/WX    TMP DP  RH WIND       PRES   REMARKS
FULTON         CLEAR     60  59  96 CALM      30.04R FOG
SYRACUSE       FOG       62  62 100 CALM      30.03R VSB 1
ROME           CLEAR     60  59  96 CALM      30.05R
ELMIRA         CLOUDY    70  69  97 W3        30.03R FOG
BINGHAMTON     CLEAR     64  63  96 E7        30.05R FOG
MONTICELLO     CLEAR     63  63 100 NW3       30.05R
$$

NYZ026>034-041>043-041100-
NORTH


CITY           SKY/WX    TMP DP  RH WIND       PRES   REMARKS
WATERTOWN      CLEAR     58  56  93 E3        30.06R FOG
FORT DRUM      NOT AVBL
MASSENA        CLEAR     51  47  86 NE3       30.11R
SARANAC LAKE   CLEAR     37  36  96 CALM      30.10F
PLATTSBURGH    CLEAR     51  48  89 CALM      30.10R
$$

NYZ001>004-010>016-019>021-041100-
WEST


CITY           SKY/WX    TMP DP  RH WIND       PRES   REMARKS
NIAGARA FALLS  MOCLDY    67  65  93 E3        30.02R FOG
BUFFALO        MOCLDY    68  65  90 NE6       30.03R FOG
DUNKIRK        MOCLDY    68  66  93 SE3       30.02R FOG
JAMESTOWN      CLOUDY    64  63  94 SW3       30.06R VSB 1/4
WELLSVILLE     CLOUDY    66  64  93 E5        30.10R FOG
ROCHESTER      PTCLDY    65  63  93 CALM      30.04R FOG
PENN YAN       FOG       65  65 100 CALM      30.05R VSB 1/2
$$

             KEY
       WCI = WIND CHILL INDEX
       VSB = VISIBILITY
       HX  = HEAT INDEX
$$


USA.gov is the U.S. government's official web portal to all federal, state and local government web resources and services.